Tracking 22882 objects as of 18-Apr-2021
HD Live streaming from Space Station
objects crossing your sky now

METEOR 2-17 DEB

Track METEOR 2-17 DEB now!
10-day predictions


NORAD ID: 28993
Int'l Code: 1988-005H
Perigee: 918.7 km
Apogee: 939.9 km
Inclination: 82.5 °
Period: 103.5 minutes
Semi major axis: 7300 km
RCS: 0.0011 m2 (small)
Launch date: January 30, 1988
Source: Commonwealth of Independent States (former USSR) (CIS)
Launch site: PLESETSK MISSILE AND SPACE COMPLEX (PKMTR)

Note: This is SATELLITE DEBRIS
aabbcc
Your satellite tracking list
Your tracking list is empty




NASA's NSSDC Master Catalog

Two Line Element Set (TLE):
1 28993U 88005H   21106.40532650  .00000904  00000-0  69859-3 0  9990
2 28993  82.5317 358.6448 0014512 334.9660  25.0799 13.91841189327112
Source of the keplerian elements: AFSPC